Precipitable_Water
0.28 0.34 0.39 0.37 0.32 0.30 0.25 0.25 0.20 0.20 0.23 0.23 0.22 0.26 0.29 0.32 0.36 0.34 0.35 0.55 0.58 0.62 0.69 0.71 0.68 0.70 0.70 0.67 0.66 0.64 0.61 0.57 0.56 0.58 0.58 0.55 0.51 0.51 0.51 0.47 0.40 0.39 0.38 0.40
0.27 0.31 0.34 0.31 0.34 0.30 0.26 0.26 0.26 0.23 0.23 0.26 0.31 0.32 0.30 0.30 0.31 0.36 0.34 0.36 0.52 0.60 0.67 0.69 0.70 0.72 0.68 0.64 0.61 0.60 0.61 0.55 0.56 0.56 0.56 0.55 0.55 0.50 0.45 0.42 0.40 0.39 0.39 0.38
0.23 0.30 0.27 0.21 0.24 0.27 0.27 0.27 0.24 0.20 0.23 0.27 0.30 0.33 0.33 0.34 0.33 0.36 0.35 0.38 0.44 0.53 0.62 0.66 0.67 0.69 0.64 0.60 0.60 0.58 0.58 0.55 0.55 0.57 0.55 0.57 0.50 0.45 0.42 0.39 0.42 0.39 0.39 0.39
0.26 0.26 0.16 0.21 0.28 0.27 0.25 0.27 0.27 0.27 0.28 0.30 0.33 0.36 0.34 0.32 0.36 0.38 0.45 0.46 0.48 0.51 0.55 0.59 0.63 0.63 0.63 0.61 0.59 0.57 0.55 0.53 0.55 0.57 0.58 0.53 0.47 0.41 0.37 0.40 0.37 0.38 0.39 0.38
0.25 0.21 0.21 0.24 0.25 0.21 0.19 0.19 0.27 0.27 0.29 0.32 0.35 0.33 0.30 0.44 0.48 0.48 0.48 0.48 0.50 0.54 0.57 0.61 0.62 0.64 0.62 0.61 0.58 0.54 0.52 0.54 0.59 0.59 0.50 0.44 0.38 0.38 0.37 0.34 0.34 0.35 0.37 0.35
0.24 0.18 0.15 0.28 0.31 0.31 0.27 0.19 0.32 0.31 0.32 0.32 0.34 0.26 0.34 0.50 0.52 0.49 0.49 0.48 0.53 0.58 0.62 0.65 0.68 0.68 0.61 0.59 0.56 0.55 0.55 0.56 0.53 0.56 0.48 0.41 0.40 0.36 0.34 0.34 0.33 0.34 0.35 0.35
0.27 0.23 0.26 0.34 0.35 0.32 0.17 0.25 0.39 0.39 0.35 0.35 0.34 0.40 0.45 0.49 0.49 0.52 0.52 0.55 0.62 0.65 0.66 0.68 0.69 0.66 0.61 0.58 0.57 0.58 0.60 0.60 0.60 0.53 0.45 0.41 0.37 0.36 0.34 0.31 0.31 0.31 0.32 0.33
0.29 0.26 0.18 0.34 0.31 0.23 0.40 0.42 0.36 0.38 0.39 0.39 0.42 0.44 0.45 0.48 0.52 0.58 0.59 0.59 0.64 0.61 0.58 0.61 0.64 0.63 0.58 0.57 0.62 0.63 0.61 0.60 0.52 0.46 0.42 0.38 0.36 0.33 0.32 0.30 0.29 0.31 0.32 0.31
0.29 0.29 0.40 0.36 0.34 0.37 0.39 0.38 0.39 0.39 0.43 0.46 0.47 0.49 0.55 0.58 0.61 0.63 0.59 0.55 0.54 0.56 0.58 0.61 0.63 0.63 0.59 0.62 0.64 0.62 0.56 0.51 0.46 0.41 0.38 0.37 0.33 0.28 0.27 0.28 0.29 0.29 0.29 0.29
0.30 0.28 0.35 0.38 0.41 0.41 0.44 0.43 0.48 0.49 0.51 0.56 0.55 0.60 0.60 0.63 0.61 0.54 0.54 0.51 0.51 0.54 0.58 0.59 0.62 0.62 0.61 0.62 0.59 0.55 0.49 0.44 0.40 0.37 0.34 0.32 0.31 0.28 0.25 0.28 0.29 0.27 0.27 0.28
0.32 0.35 0.36 0.39 0.47 0.50 0.49 0.51 0.54 0.60 0.62 0.59 0.60 0.60 0.62 0.56 0.52 0.53 0.56 0.58 0.59 0.57 0.56 0.56 0.58 0.59 0.60 0.57 0.53 0.46 0.41 0.37 0.35 0.32 0.30 0.29 0.29 0.28 0.27 0.27 0.30 0.28 0.30 0.31
0.28 0.44 0.39 0.43 0.53 0.54 0.52 0.52 0.54 0.55 0.54 0.56 0.57 0.54 0.56 0.56 0.57 0.59 0.59 0.61 0.59 0.58 0.56 0.55 0.55 0.52 0.49 0.47 0.43 0.37 0.33 0.30 0.29 0.28 0.28 0.27 0.27 0.28 0.31 0.29 0.30 0.31 0.33 0.31
0.41 0.47 0.47 0.50 0.50 0.51 0.51 0.53 0.55 0.56 0.59 0.57 0.58 0.59 0.59 0.60 0.62 0.62 0.60 0.57 0.55 0.53 0.51 0.48 0.45 0.42 0.40 0.38 0.35 0.30 0.27 0.27 0.26 0.26 0.26 0.27 0.28 0.27 0.25 0.29 0.31 0.31 0.32 0.34
0.45 0.48 0.49 0.51 0.48 0.56 0.57 0.58 0.61 0.61 0.61 0.60 0.61 0.61 0.60 0.57 0.55 0.53 0.51 0.50 0.47 0.44 0.41 0.38 0.35 0.33 0.34 0.33 0.31 0.28 0.26 0.26 0.26 0.27 0.28 0.30 0.31 0.30 0.30 0.29 0.27 0.27 0.33 0.35
0.50 0.53 0.53 0.57 0.58 0.58 0.62 0.61 0.58 0.57 0.59 0.58 0.58 0.54 0.50 0.47 0.45 0.44 0.44 0.42 0.39 0.35 0.33 0.31 0.29 0.27 0.29 0.29 0.27 0.25 0.26 0.26 0.28 0.30 0.31 0.32 0.31 0.30 0.30 0.29 0.29 0.30 0.31 0.32
0.54 0.55 0.56 0.56 0.57 0.59 0.59 0.58 0.57 0.56 0.54 0.52 0.50 0.49 0.48 0.48 0.44 0.39 0.35 0.34 0.28 0.25 0.26 0.25 0.24 0.26 0.28 0.29 0.28 0.29 0.29 0.30 0.31 0.32 0.32 0.32 0.31 0.30 0.30 0.29 0.28 0.29 0.31 0.33
0.52 0.50 0.53 0.53 0.55 0.57 0.57 0.59 0.56 0.53 0.50 0.47 0.42 0.38 0.33 0.29 0.29 0.28 0.27 0.28 0.27 0.26 0.27 0.27 0.28 0.32 0.32 0.32 0.31 0.31 0.32 0.33 0.34 0.34 0.34 0.33 0.32 0.32 0.32 0.32 0.30 0.29 0.29 0.31
0.59 0.58 0.58 0.58 0.57 0.57 0.55 0.53 0.49 0.44 0.38 0.37 0.34 0.31 0.28 0.26 0.24 0.25 0.26 0.27 0.27 0.28 0.33 0.35 0.35 0.35 0.34 0.34 0.35 0.34 0.33 0.31 0.32 0.32 0.33 0.33 0.32 0.34 0.32 0.32 0.31 0.31 0.30 0.31
0.57 0.57 0.58 0.58 0.56 0.52 0.47 0.42 0.40 0.38 0.36 0.33 0.30 0.27 0.27 0.27 0.27 0.27 0.26 0.24 0.24 0.26 0.28 0.29 0.27 0.27 0.26 0.25 0.25 0.25 0.26 0.27 0.29 0.31 0.30 0.30 0.32 0.32 0.32 0.31 0.30 0.32 0.32 0.31
0.55 0.55 0.53 0.49 0.47 0.43 0.40 0.41 0.40 0.34 0.32 0.29 0.28 0.24 0.21 0.21 0.22 0.21 0.22 0.21 0.23 0.26 0.27 0.26 0.24 0.21 0.21 0.22 0.22 0.21 0.19 0.19 0.20 0.22 0.23 0.29 0.30 0.30 0.33 0.35 0.33 0.32 0.32 0.33
0.50 0.47 0.45 0.44 0.42 0.42 0.40 0.37 0.32 0.28 0.26 0.25 0.22 0.21 0.20 0.23 0.24 0.24 0.22 0.20 0.25 0.25 0.24 0.21 0.18 0.19 0.18 0.18 0.17 0.17 0.19 0.20 0.20 0.20 0.21 0.24 0.26 0.27 0.32 0.31 0.30 0.29 0.32 0.32
0.47 0.44 0.44 0.43 0.40 0.37 0.34 0.31 0.29 0.26 0.25 0.25 0.24 0.23 0.22 0.21 0.21 0.21 0.21 0.21 0.22 0.21 0.17 0.17 0.18 0.16 0.15 0.16 0.18 0.18 0.18 0.18 0.19 0.22 0.26 0.27 0.27 0.28 0.31 0.31 0.30 0.31 0.33 0.31
0.46 0.44 0.43 0.40 0.36 0.33 0.31 0.29 0.28 0.26 0.25 0.26 0.24 0.23 0.21 0.20 0.21 0.18 0.18 0.21 0.20 0.17 0.16 0.17 0.15 0.14 0.15 0.16 0.16 0.16 0.17 0.17 0.17 0.19 0.21 0.23 0.24 0.26 0.27 0.26 0.27 0.27 0.27 0.27
0.41 0.40 0.39 0.38 0.36 0.32 0.27 0.27 0.27 0.27 0.27 0.25 0.24 0.23 0.20 0.19 0.20 0.21 0.19 0.18 0.16 0.15 0.15 0.16 0.14 0.13 0.14 0.15 0.15 0.15 0.16 0.16 0.17 0.18 0.18 0.20 0.21 0.22 0.22 0.22 0.23 0.24 0.24 0.24
0.38 0.38 0.37 0.34 0.31 0.29 0.27 0.27 0.26 0.26 0.24 0.23 0.22 0.21 0.22 0.21 0.19 0.17 0.17 0.15 0.14 0.14 0.14 0.14 0.14 0.13 0.13 0.13 0.14 0.14 0.15 0.15 0.16 0.16 0.17 0.18 0.18 0.19 0.19 0.20 0.20 0.21 0.21 0.21
0.37 0.34 0.33 0.31 0.29 0.28 0.27 0.25 0.24 0.24 0.22 0.21 0.20 0.20 0.21 0.20 0.17 0.15 0.14 0.14 0.14 0.13 0.13 0.13 0.13 0.13 0.13 0.13 0.13 0.13 0.13 0.14 0.14 0.15 0.16 0.16 0.17 0.17 0.17 0.18 0.18 0.19 0.18 0.18
0.35 0.34 0.31 0.29 0.28 0.26 0.25 0.24 0.23 0.21 0.22 0.20 0.17 0.18 0.18 0.16 0.15 0.14 0.13 0.13 0.13 0.12 0.12 0.12 0.13 0.13 0.12 0.12 0.12 0.13 0.13 0.13 0.13 0.13 0.13 0.14 0.15 0.15 0.16 0.16 0.16 0.16 0.17 0.17
Wind_Speed
17 17 11 13 11 13 16 15 15 13 15 14 12 12 12 13 16 17 20 23 24 25 26 28 29 30 30 31 31 31 32 32 32 32 34 35 36 37 40 38 40 40 41 40
13 15 17 17 17 16 16 16 18 18 19 16 13 15 16 18 20 21 22 23 25 26 27 28 30 30 30 31 31 31 32 32 32 32 35 35 38 40 38 38 40 41 42 41
12 9 11 12 15 19 19 18 17 17 17 17 17 16 16 20 21 23 24 26 26 26 27 29 30 30 30 30 30 30 31 32 33 34 34 39 38 38 39 40 42 41 40 40
10 10 10 13 9 11 12 14 17 19 18 15 13 16 20 23 23 24 24 25 26 27 27 28 29 29 29 28 29 30 31 31 32 35 38 38 39 38 38 39 40 40 40 40
10 12 13 12 9 9 9 10 10 11 12 13 16 18 18 21 21 24 24 26 27 28 28 27 27 27 27 28 29 29 30 31 35 37 36 38 39 38 39 39 39 39 40 40
10 10 10 9 8 9 10 11 9 11 13 16 18 19 21 23 25 26 27 28 28 28 27 27 27 26 26 27 27 28 31 34 34 37 39 37 37 38 38 39 39 39 40 37
10 10 12 10 9 11 11 10 12 14 17 20 21 22 26 27 27 27 28 28 28 27 26 26 25 26 25 26 28 30 32 35 37 37 37 38 37 36 37 38 39 39 38 36
8 8 12 10 9 10 10 13 16 19 21 23 25 26 26 26 27 26 26 28 25 24 25 25 25 25 26 27 30 33 34 35 36 36 35 35 36 38 39 39 39 37 35 35
9 9 10 11 11 14 16 18 20 22 23 24 25 25 26 27 28 25 27 25 25 24 24 25 26 26 27 30 32 33 34 34 35 34 34 36 38 39 37 36 36 34 34 34
10 12 13 15 16 19 18 19 20 22 24 23 23 24 27 27 25 25 25 25 25 24 25 26 27 28 29 32 33 33 33 33 34 34 35 36 36 36 36 36 36 35 34 33
15 17 18 15 16 16 18 21 21 22 22 23 25 26 26 25 25 25 24 25 26 27 27 28 29 31 31 31 31 32 33 34 34 34 36 36 36 35 36 36 35 35 34 33
16 15 17 18 19 20 20 21 22 22 22 23 25 25 25 25 24 25 25 26 27 28 29 29 30 30 31 31 32 33 34 34 34 35 35 36 36 36 35 36 36 35 34 32
18 19 19 18 19 20 20 21 21 22 23 25 25 25 24 24 25 25 25 26 27 28 29 29 30 31 33 34 34 34 34 34 34 35 35 36 36 37 37 36 36 34 32 31
19 21 20 21 21 20 20 21 21 23 24 24 24 23 23 23 23 24 25 26 28 30 31 32 33 34 35 35 34 34 34 35 36 36 37 37 36 36 37 37 36 35 33 32
19 18 18 19 20 21 22 22 23 23 23 22 22 21 22 23 24 26 28 30 31 32 34 34 35 36 36 36 36 37 37 37 37 37 37 37 37 37 38 38 38 37 34 32
20 20 20 20 21 21 21 21 21 20 20 20 21 23 25 27 28 30 31 31 33 34 35 37 37 38 38 38 38 38 38 39 39 40 39 39 39 40 40 39 38 37 34 32
21 22 21 20 20 20 19 19 19 19 21 22 24 26 28 29 29 30 32 33 34 36 37 38 38 38 38 39 39 39 40 42 42 42 42 43 43 43 43 40 38 36 34 32
20 20 20 20 19 18 18 18 20 21 23 25 26 27 28 29 30 32 34 35 36 37 37 37 38 40 41 41 42 43 44 44 44 45 46 46 45 44 43 40 38 34 33 31
18 18 18 17 17 17 18 20 21 22 24 25 26 27 28 30 32 34 36 38 38 38 39 41 43 43 44 43 44 45 46 47 48 49 49 48 46 44 41 39 36 35 34 32
16 15 15 16 17 18 19 21 23 24 25 26 27 29 31 33 35 37 37 38 38 39 42 43 45 46 46 46 47 48 50 51 51 51 50 48 45 44 41 37 36 34 33 30
15 16 16 17 18 20 21 23 24 25 26 28 30 32 34 36 37 38 39 40 40 43 45 46 47 45 46 48 50 51 51 51 50 49 46 43 41 38 36 37 34 31 28 28
16 17 18 19 21 22 24 25 26 27 29 31 32 34 36 37 39 40 41 41 44 45 46 46 45 47 49 49 48 48 48 46 43 41 39 38 37 35 29 27 26 26 24 24
18 19 21 22 23 24 25 27 28 29 31 33 34 36 38 39 41 42 42 44 44 46 45 44 46 48 48 47 46 44 42 40 37 35 33 30 27 24 22 25 24 24 23 23
20 21 23 24 25 27 28 29 30 31 33 35 36 38 39 41 41 42 43 44 44 45 44 45 46 46 46 43 41 39 37 35 34 33 30 28 26 25 24 23 23 23 24 25
22 23 25 27 27 28 29 31 32 34 35 37 38 40 40 41 41 43 43 43 44 44 44 45 45 43 41 39 37 37 36 35 33 31 29 27 26 24 24 24 24 24 24 25
24 25 27 27 28 30 31 33 34 35 37 38 39 40 40 41 42 42 42 42 43 44 43 43 41 39 38 37 36 36 36 35 33 31 30 28 27 26 25 25 25 26 26 27
26 27 27 28 30 31 32 34 35 37 38 38 40 41 41 41 41 41 42 42 43 42 41 39 38 37 36 36 36 35 35 35 33 31 30 30 29 29 28 28 28 28 29 29
Wind_Direction
253 250 256 264 251 239 241 242 245 255 261 274 298 293 286 295 282 285 288 275 275 273 274 277 280 280 279 278 280 282 285 286 289 292 295 298 301 303 304 303 306 308 309 309
253 258 260 255 257 256 260 256 255 262 264 279 287 290 292 293 292 289 292 291 282 279 277 278 280 281 280 280 281 283 283 285 290 292 296 298 301 303 303 303 305 307 308 307
246 253 263 261 250 253 259 259 259 262 271 278 284 288 297 296 295 291 294 294 291 286 282 282 281 280 280 280 282 283 285 286 289 294 296 298 300 302 302 302 304 305 306 307
242 243 248 255 253 264 263 266 265 271 275 284 290 296 299 297 295 299 296 298 295 292 288 286 283 281 279 280 282 285 286 287 292 294 297 298 299 300 303 306 305 305 305 306
232 235 255 272 254 265 264 271 288 284 287 291 296 299 303 311 306 304 303 301 297 295 292 289 286 282 280 282 284 286 288 292 295 294 300 300 302 301 300 304 306 306 305 306
227 240 245 255 261 269 269 263 282 292 293 294 297 297 300 305 307 305 301 301 300 298 294 291 289 285 284 284 286 289 290 293 298 299 298 301 302 301 301 303 304 306 308 307
231 247 263 259 259 273 267 275 287 293 297 300 297 299 302 304 302 302 304 305 302 300 300 296 290 287 288 287 290 293 292 296 297 299 301 300 300 303 304 304 305 307 307 307
239 250 263 256 266 270 280 284 294 297 298 299 299 300 300 301 303 304 306 307 306 304 304 303 298 291 289 292 294 294 296 297 298 300 301 302 304 304 304 306 307 308 308 308
239 262 261 260 281 286 286 289 294 296 299 301 302 304 304 305 305 305 306 307 307 305 304 304 302 296 295 295 297 295 296 298 299 301 301 302 305 306 306 308 309 307 307 308
270 273 269 271 279 286 289 295 299 302 302 303 304 305 305 306 307 307 309 308 306 306 306 304 302 300 298 297 297 297 297 299 301 302 302 303 306 307 309 309 309 308 308 308
269 275 280 284 292 293 296 298 301 304 305 307 306 306 307 307 307 307 308 306 306 307 306 305 304 302 301 300 299 299 299 299 301 301 303 305 306 307 308 308 308 309 308 307
274 281 284 287 291 294 296 299 302 302 304 308 309 309 308 307 306 307 307 306 306 307 306 306 305 304 304 303 302 302 302 301 301 303 304 306 306 307 308 309 309 307 304 303
278 286 285 285 291 294 295 298 301 303 305 306 308 307 307 306 305 306 306 307 308 308 308 308 308 307 306 304 303 301 301 301 302 304 304 305 306 308 309 309 309 308 305 302
282 283 280 289 287 291 294 297 300 303 304 305 306 307 307 307 307 308 308 309 309 310 310 309 308 307 307 305 303 302 301 301 302 303 304 305 307 308 309 309 308 307 304 299
283 286 282 283 287 291 293 295 298 300 302 304 306 307 308 309 310 310 310 310 310 310 309 309 309 309 308 306 303 302 301 301 301 302 303 304 305 307 308 308 306 304 301 299
279 282 283 284 286 289 291 294 297 299 301 305 307 309 310 310 311 310 311 313 311 310 310 310 309 309 308 306 304 302 301 301 301 301 301 301 302 303 304 304 304 302 299 295
277 279 281 284 286 287 289 294 297 299 302 305 307 308 309 310 310 312 312 313 312 311 310 310 309 310 309 308 306 304 302 302 301 300 299 299 300 300 301 300 301 299 298 295
281 281 282 280 282 285 289 294 298 301 303 305 306 308 310 312 312 312 313 313 313 313 313 313 313 311 309 307 306 304 303 302 301 300 299 298 297 298 298 297 296 295 295 294
278 280 280 281 283 287 291 295 298 301 304 306 307 309 311 312 313 313 313 313 312 312 313 312 312 311 309 308 306 305 304 303 302 300 298 297 295 294 293 294 293 291 292 291
276 277 278 283 286 288 292 296 298 302 305 306 307 309 310 311 312 313 313 313 314 313 313 313 312 311 309 308 307 306 304 303 302 300 298 297 295 292 287 287 291 289 287 287
273 275 279 282 288 292 295 298 300 302 304 306 307 309 310 311 312 312 313 313 314 314 313 313 312 312 311 310 309 308 307 305 303 301 299 297 295 291 286 286 287 287 284 285
273 277 281 286 289 294 297 299 301 303 304 306 308 309 310 312 313 313 313 313 314 314 314 314 314 314 314 313 312 311 311 311 311 309 302 298 296 292 285 287 288 290 284 283
278 282 285 289 293 295 298 300 301 303 305 306 308 310 311 312 312 313 313 314 314 315 315 314 315 316 316 316 316 315 315 315 314 311 309 308 305 300 291 291 287 287 287 286
281 285 288 291 293 296 298 301 302 303 306 307 309 310 312 312 312 313 313 314 315 316 315 316 317 318 318 318 318 318 318 318 317 314 311 307 303 299 295 291 288 287 287 287
283 286 289 291 294 298 300 302 302 305 307 308 309 310 312 312 313 313 314 314 315 316 316 317 318 319 319 320 320 320 319 318 317 315 312 308 305 300 296 292 290 289 288 288
285 289 292 295 296 298 301 302 303 305 306 308 309 310 311 312 313 314 314 315 316 317 317 318 319 320 320 321 321 321 320 319 316 313 310 306 302 299 296 294 291 290 290 290
288 291 292 295 298 300 302 303 305 306 307 308 309 309 311 313 313 314 315 316 317 318 318 319 320 320 321 322 322 322 322 321 318 315 310 305 301 297 294 292 291 290 290 291